"Pseudo-MPEC" for W01802

Created 2023 Nov 30 6:22:08 UT using Find_Orb

Click here for an explanation of pseudo-MPECs

 
 Astrometry: 
     W01802 * C2023 11 10yB))Qs8TqN,i!AstrometrybaZ']$AoYp-YHeredacted;7!-t*_O18
     W01802   C2023 11 10GvmIGu06wrRclickS,Yj0U9f40sG2^9here3F3q_[mfor,^:'n*$O18
     W01802   C2023 11 10@\1LpV6KoV9%PakhXh3OMHvYa6;/AsPW+VMamx0#8explanationO18

Station data:
(O18) WFST, Lenghu  (N38.607601 E93.895220).

Orbital elements:  W01802
   Perihelion 2082 Oct 11.78832 +/- 16169 TT = 18:55:10 (JD 2481779.28832)
Epoch 2023 Nov 11.0 TT = JDT 2460259.5                           AutoNEOCP
M 328.75954227 +/- 18               (J2000 ecliptic)
n   0.00145170 +/-                  Peri.  237.90488 +/- 60
a  77.2472665 +/-                   Node   229.38787 +/- 31
e   0.3440765 +/- 0.235             Incl.   60.15823 +/- 33
P 678.93                   H  4.54  G  0.15   U 10.2  SR
q 50.6682920 +/- 17.9    Q 103.826240 +/- 226
From 3 observations 2023 Nov. 10 (41.5 min); mean residual 0".09
Residuals in arcseconds: 
231110 O18  .07+  .05-    231110 O18  .14-  .10+    231110 O18  .08+  .05-    

Ephemerides (geocentric):
Date (UTC) HH   RA             Dec           delta  r     elong  mag " sig PA
---- --------  ------------   ------------  ------ ------ -----  --- --------
2023 11 30 06  02 55 08.103   +20 04 52.13  57.594 58.519 159.5 22.3 216'  89
2023 11 30 07  02 55 07.957   +20 04 51.14  57.595 58.519 159.5 22.3 219'  88
2023 11 30 08  02 55 07.812   +20 04 50.14  57.595 58.519 159.5 22.3 223'  88
2023 11 30 09  02 55 07.666   +20 04 49.14  57.595 58.519 159.4 22.3 227'  88
2023 11 30 10  02 55 07.521   +20 04 48.14  57.595 58.519 159.4 22.3 231'  88
2023 11 30 11  02 55 07.375   +20 04 47.14  57.595 58.519 159.3 22.3 235'  88
2023 11 30 12  02 55 07.230   +20 04 46.15  57.596 58.519 159.3 22.3 239'  88
2023 11 30 13  02 55 07.084   +20 04 45.15  57.596 58.519 159.3 22.3 243'  88
2023 11 30 14  02 55 06.939   +20 04 44.15  57.596 58.519 159.2 22.3 247'  88
2023 11 30 15  02 55 06.794   +20 04 43.15  57.596 58.519 159.2 22.3 251'  87
2023 11 30 16  02 55 06.648   +20 04 42.16  57.597 58.519 159.1 22.3 256'  87
2023 11 30 17  02 55 06.503   +20 04 41.16  57.597 58.519 159.1 22.3 260'  87
2023 11 30 18  02 55 06.358   +20 04 40.16  57.597 58.519 159.0 22.3 265'  87
2023 11 30 19  02 55 06.213   +20 04 39.17  57.597 58.519 159.0 22.3 270'  87
2023 11 30 20  02 55 06.068   +20 04 38.17  57.598 58.519 159.0 22.3 274'  87
2023 11 30 21  02 55 05.923   +20 04 37.17  57.598 58.519 158.9 22.3 279'  87
2023 11 30 22  02 55 05.778   +20 04 36.17  57.598 58.519 158.9 22.3 284'  86
2023 11 30 23  02 55 05.633   +20 04 35.18  57.598 58.519 158.8 22.3 290'  86
2023 12 01 00  02 55 05.488   +20 04 34.18  57.599 58.519 158.8 22.3 295'  86
2023 12 01 01  02 55 05.343   +20 04 33.19  57.599 58.519 158.7 22.3 300'  86
2023 12 01 02  02 55 05.199   +20 04 32.19  57.599 58.519 158.7 22.3 306'  86
2023 12 01 03  02 55 05.054   +20 04 31.19  57.599 58.519 158.7 22.3 312'  86
2023 12 01 04  02 55 04.909   +20 04 30.20  57.600 58.519 158.6 22.3 317'  85
2023 12 01 05  02 55 04.765   +20 04 29.20  57.600 58.519 158.6 22.3 323'  85
2023 12 01 06  02 55 04.620   +20 04 28.20  57.600 58.519 158.5 22.3 329'  85
2023 12 01 07  02 55 04.476   +20 04 27.21  57.600 58.519 158.5 22.3 335'  85
2023 12 01 08  02 55 04.331   +20 04 26.21  57.600 58.519 158.5 22.3 342'  85
2023 12 01 09  02 55 04.187   +20 04 25.22  57.601 58.519 158.4 22.3 348'  84
2023 12 01 10  02 55 04.043   +20 04 24.22  57.601 58.519 158.4 22.3 355'  84
2023 12 01 11  02 55 03.898   +20 04 23.23  57.601 58.519 158.3 22.3 361'  84
2023 12 01 12  02 55 03.754   +20 04 22.23  57.601 58.519 158.3 22.3 368'  84
2023 12 01 13  02 55 03.610   +20 04 21.23  57.602 58.519 158.2 22.3 375'  84
2023 12 01 14  02 55 03.466   +20 04 20.24  57.602 58.519 158.2 22.3 382'  83
2023 12 01 15  02 55 03.322   +20 04 19.24  57.602 58.519 158.2 22.3 389'  83
2023 12 01 16  02 55 03.178   +20 04 18.25  57.602 58.519 158.1 22.3 396'  83
2023 12 01 17  02 55 03.034   +20 04 17.25  57.603 58.519 158.1 22.3 404'  83
2023 12 01 18  02 55 02.890   +20 04 16.26  57.603 58.519 158.0 22.3 411'  83
2023 12 01 19  02 55 02.746   +20 04 15.27  57.603 58.519 158.0 22.3 419'  82
2023 12 01 20  02 55 02.602   +20 04 14.27  57.603 58.518 157.9 22.3 426'  82
2023 12 01 21  02 55 02.458   +20 04 13.28  57.604 58.518 157.9 22.3 434'  82
2023 12 01 22  02 55 02.314   +20 04 12.28  57.604 58.518 157.9 22.3 441'  82
2023 12 01 23  02 55 02.171   +20 04 11.29  57.604 58.518 157.8 22.3 449'  82
2023 12 02 00  02 55 02.027   +20 04 10.29  57.604 58.518 157.8 22.3 457'  81
2023 12 02 01  02 55 01.883   +20 04 09.30  57.605 58.518 157.7 22.3 465'  81
2023 12 02 02  02 55 01.740   +20 04 08.31  57.605 58.518 157.7 22.3 473'  81
2023 12 02 03  02 55 01.596   +20 04 07.31  57.605 58.518 157.6 22.3 481'  81
2023 12 02 04  02 55 01.453   +20 04 06.32  57.605 58.518 157.6 22.3 489'  81
2023 12 02 05  02 55 01.310   +20 04 05.32  57.606 58.518 157.6 22.3 497'  80